[[{"header":{"parameterUnit":"m.s-1","parameterCategory":2,"la1":30.2991,"la2":30.254,"lo1":-89.0895,"lo2":-89.0444,"dy":0.0017,"dx":0.0017,"nx":28,"ny":28,"refTime":"2025-04-17T03:00:00:Z","depth":"0","parameterNumber":2,"parameterNumberName":"U-component_of_CURRENTS"},"data":[0,0,0,0,0,0,0,0,0,0,0,0,0,0,0,0,0,0,0,0,0,0,0,0,0,0,0,0,0,0,0,0,0,0,0,0,0,0,0,0,0,0,0,0,0,0,0,0,0,0,0,0,0,0,0,0,0,0,0.1871,0.1871,0,0.187,0.187,0.187,0.1857,0.1857,0.1857,0.1856,0.1869,0.187,0.1871,0,0,0,0,0,0,0,0,0,0,0,0,0,0.1887,0.1887,0.1871,0.1871,0.1871,0.187,0.187,0.187,0.1857,0.1857,0.1857,0.1856,0.1869,0.187,0.1871,0,0,0,0,0,0,0,0,0,0,0,0,0,0.1882,0.1887,0.1871,0.1865,0.1865,0.187,0.187,0.187,0.1857,0.1857,0.1856,0.1856,0.1869,0.187,0.1871,0.1885,0,0,0.1874,0.1874,0,0,0,0,0,0,0,0,0.1883,0.1882,0.1866,0.1866,0.1865,0.1863,0.188,0.1876,0.1857,0.186,0.1856,0.1856,0.1869,0.187,0.187,0.1886,0.1886,0.1874,0.1874,0.1875,0.1875,0,0,0,0,0,0,0,0.1883,0.1882,0.187,0.1866,0.1865,0.1871,0.1869,0.1879,0.1867,0.186,0.1859,0.1859,0.1869,0.1869,0.187,0.1886,0.1874,0.1874,0.1875,0.1875,0.1938,0.1939,0,0,0,0,0,0,0.1883,0.1882,0.1871,0.187,0.1873,0.1871,0.1869,0.1864,0.1867,0.1867,0.1859,0.1858,0.1868,0.1869,0.1871,0.1908,0.1875,0.1876,0.1876,0.1937,0.1938,0.1939,0,0,0,0,0,0,0.1883,0.1882,0.1871,0.1877,0.1876,0.1871,0.1865,0.1864,0.1864,0.1866,0.1866,0.186,0.1868,0.187,0.1885,0.1908,0.1876,0.1877,0.1935,0.1937,0.1939,0.197,0,0,0,0,0,0,0.1883,0.1882,0.188,0.1877,0.1875,0.188,0.1866,0.1865,0.1865,0.1863,0.1867,0.1867,0.1868,0.1884,0.1886,0.1908,0.1877,0.1934,0.1936,0.1938,0.1967,0.1972,0.1977,0,0,0,0,0,0.1884,0.1883,0.188,0.1879,0.1873,0.1881,0.1881,0.1876,0.1865,0.1872,0.1873,0.1867,0.1899,0.1885,0.1888,0.1911,0.1933,0.1936,0.1938,0.1965,0.1971,0.1977,0,0,0,0,0,0,0.189,0.1882,0.1878,0.1875,0.1881,0.1879,0.1882,0.1877,0.1882,0.188,0.1878,0.1879,0.1908,0.1903,0.1888,0.1936,0.1917,0.192,0.1937,0.1943,0.1947,0.1952,0.1878,0,0,0,0,0,0.1891,0.1887,0.1886,0.1885,0.1888,0.1885,0.1887,0.1885,0.1888,0.1888,0.189,0.1899,0.1921,0.1925,0.1942,0.196,0.1975,0.1979,0.1983,0.1987,0.1993,0.2042,0.2051,0.1947,0.1947,0.1947,0,0,0.1891,0.1888,0.1885,0.1887,0.1888,0.1894,0.1885,0.1891,0.1898,0.1891,0.1902,0.1918,0.1932,0.196,0.1971,0.1956,0.2024,0.199,0.1993,0.1998,0.2045,0.2055,0.2064,0.1949,0.1949,0.1949,0,0,0.1894,0.1891,0.1889,0.1895,0.19,0.1903,0.1906,0.1907,0.1912,0.1927,0.1932,0.1959,0.1975,0.1996,0.2007,0.2047,0.2053,0.2052,0.2072,0.2119,0.2128,0.2136,0.2164,0.2175,0.2047,0.2047,0.2047,0,0.1896,0.189,0.1893,0.1896,0.19,0.1907,0.1911,0.1922,0.193,0.1942,0.1935,0.1989,0.1996,0.2044,0.2058,0.2058,0.2079,0.2048,0.2125,0.2133,0.2141,0.2169,0.218,0.2049,0.2048,0.2048,0.2048,0,0.1895,0.1894,0.1897,0.1901,0.1911,0.1917,0.1932,0.1947,0.1954,0.1966,0.2014,0.2036,0.2067,0.2079,0.2078,0.2141,0.2137,0.2132,0.211,0.2153,0.218,0.2191,0.2051,0.2051,0.205,0.205,0,0,0.1885,0.1892,0.1892,0.1893,0.1911,0.1917,0.1944,0.197,0.1992,0.2017,0.2056,0.2099,0.2117,0.2132,0.2147,0.2182,0.2252,0.2179,0.218,0.2205,0.235,0.2248,0.225,0.2263,0.2265,0.2267,0.2345,0,0.1881,0.1882,0.1891,0.1898,0.1901,0.1923,0.195,0.1979,0.201,0.2053,0.2096,0.2142,0.2136,0.2163,0.2201,0.225,0.2283,0.2231,0.2306,0.2308,0.221,0.226,0.2165,0.2218,0.2356,0.2358,0.2359,0,0.1869,0.1873,0.1874,0.1895,0.19,0.191,0.1954,0.1981,0.205,0.208,0.2138,0.2176,0.225,0.2234,0.2336,0.2305,0.2329,0.2356,0.2359,0.2261,0.2226,0.2198,0.2233,0.2177,0.2376,0.2374,0.2373,0,0.1846,0.1858,0.1857,0.1861,0.1891,0.1902,0.1927,0.1986,0.2018,0.2106,0.215,0.2233,0.2289,0.2345,0.2396,0.2379,0.2498,0.2479,0.2408,0.2401,0.2332,0.2314,0.2317,0.2544,0.2544,0.2544,0.2544,0,0.183,0.1828,0.1843,0.1841,0.1853,0.1885,0.1915,0.1958,0.2031,0.2083,0.2163,0.2225,0.2323,0.2397,0.2427,0.2452,0.2525,0.2423,0.242,0.2337,0.2319,0.2274,0.2229,0.2547,0.2546,0.2546,0.2545,0,0.18,0.1809,0.1806,0.183,0.1838,0.1846,0.1894,0.1922,0.2004,0.208,0.2116,0.2242,0.2331,0.2404,0.2503,0.2482,0.2428,0.2503,0.2386,0.2365,0.2198,0.2157,0.2007,0.1966,0.2434,0.2432,0.2431,0,0.1784,0.1778,0.1787,0.1784,0.1789,0.1809,0.1826,0.1897,0.1933,0.2083,0.2118,0.2237,0.2304,0.2402,0.2394,0.2419,0.2357,0.2333,0.2266,0.218,0.2135,0.1999,0.1967,0.2201,0.2198,0.2195,0.2193,0,0.1755,0.1754,0.1752,0.1743,0.1745,0.1757,0.1789,0.1816,0.1917,0.1993,0.2097,0.2167,0.2248,0.2231,0.225,0.2253,0.2177,0.227,0.2236,0.1988,0.179,0.1751,0.2153,0.2168,0.217,0.2172,0.2173,0.2174,0.1731,0.1717,0.1708,0.1694,0.1695,0.1698,0.1704,0.1757,0.1815,0.1918,0.2012,0.2074,0.2108,0.2105,0.2091,0.1986,0.1959,0.1925,0.1898,0.178,0.1674,0.1992,0.1957,0.1958,0.1959,0.196,0.1961,0,0.1691,0.1675,0.166,0.164,0.1621,0.1643,0.1671,0.1681,0.1731,0.1812,0.1885,0.1899,0.1866,0.1873,0.1791,0.1675,0.1586,0.1605,0.1443,0.145,0.1804,0.173,0.1576,0.1576,0.1576,0.1577,0.1577,0.1577,0.167,0.1634,0.1618,0.1567,0.1558,0.154,0.155,0.1582,0.1619,0.1645,0.1645,0.1672,0.1699,0.159,0.1478,0.1443,0.1325,0.115,0.1188,0.1492,0.1521,0.1549,0.1472,0.1267,0.1266,0.0785,0.0781,0.0778]},{"header":{"parameterUnit":"m.s-1","parameterCategory":2,"la1":30.2991,"la2":30.254,"lo1":-89.0895,"lo2":-89.0444,"dy":0.0017,"dx":0.0017,"nx":28,"ny":28,"refTime":"2025-04-17T03:00:00:Z","depth":"0","parameterNumber":3,"parameterNumberName":"V-component_of_CURRENTS"},"data":[0,0,0,0,0,0,0,0,0,0,0,0,0,0,0,0,0,0,0,0,0,0,0,0,0,0,0,0,0,0,0,0,0,0,0,0,0,0,0,0,0,0,0,0,0,0,0,0,0,0,0,0,0,0,0,0,0,0,0.0303,0.0303,0,0.0289,0.0289,0.0289,0.027,0.027,0.027,0.027,0.0251,0.0251,0.0251,0,0,0,0,0,0,0,0,0,0,0,0,0,0.0296,0.0297,0.0303,0.0303,0.0303,0.0289,0.0289,0.0289,0.027,0.027,0.027,0.027,0.0252,0.0251,0.0251,0,0,0,0,0,0,0,0,0,0,0,0,0,0.0292,0.0297,0.0303,0.0293,0.0292,0.0289,0.0289,0.0289,0.027,0.027,0.027,0.0269,0.0252,0.0251,0.0251,0.0255,0,0,0.025,0.0249,0,0,0,0,0,0,0,0,0.0292,0.0292,0.0295,0.0294,0.0292,0.0282,0.028,0.0278,0.027,0.0278,0.027,0.0269,0.0262,0.0261,0.0258,0.0254,0.0253,0.025,0.0249,0.0249,0.0249,0,0,0,0,0,0,0,0.0292,0.0292,0.0297,0.0294,0.0293,0.0283,0.0282,0.0279,0.0271,0.0277,0.0276,0.0276,0.0261,0.0258,0.0257,0.0253,0.025,0.0249,0.0249,0.0249,0.0256,0.0257,0,0,0,0,0,0,0.0297,0.0293,0.0297,0.0297,0.0292,0.0283,0.0282,0.0285,0.0271,0.0269,0.0276,0.0275,0.0259,0.0258,0.0256,0.0276,0.0249,0.0249,0.0248,0.0256,0.0256,0.0257,0,0,0,0,0,0,0.0297,0.0298,0.0298,0.0295,0.0294,0.0284,0.0287,0.0285,0.0282,0.0271,0.0268,0.0275,0.0259,0.0257,0.0259,0.0275,0.0249,0.0248,0.0255,0.0256,0.0257,0.0306,0,0,0,0,0,0,0.0297,0.0298,0.0301,0.0295,0.0295,0.0301,0.0287,0.0285,0.0283,0.0281,0.027,0.0267,0.0258,0.026,0.0259,0.0274,0.0248,0.0255,0.0256,0.0257,0.0304,0.0308,0.0312,0,0,0,0,0,0.0297,0.0305,0.0302,0.0302,0.03,0.0302,0.03,0.0291,0.0283,0.0286,0.0279,0.0268,0.0264,0.026,0.0259,0.0274,0.0254,0.0255,0.0256,0.0302,0.0307,0.0312,0,0,0,0,0,0,0.0303,0.0304,0.03,0.0307,0.0306,0.0299,0.0302,0.0294,0.029,0.0288,0.0275,0.0273,0.028,0.0269,0.0264,0.0277,0.0257,0.0258,0.0292,0.0297,0.0301,0.0318,0.0248,0,0,0,0,0,0.0306,0.0313,0.0311,0.0317,0.0318,0.031,0.0309,0.0303,0.0299,0.0297,0.0289,0.0282,0.0283,0.0283,0.0279,0.0288,0.028,0.0295,0.0299,0.0303,0.0315,0.0319,0.0325,0.026,0.026,0.026,0,0,0.031,0.0312,0.0315,0.0318,0.0317,0.0327,0.0309,0.0311,0.0322,0.0296,0.0306,0.0296,0.0288,0.0299,0.0301,0.0291,0.0315,0.0304,0.0307,0.0318,0.0321,0.0328,0.0333,0.0261,0.0261,0.0261,0,0,0.0324,0.0323,0.0335,0.0339,0.0341,0.0339,0.0341,0.0337,0.0337,0.0344,0.0331,0.0333,0.0328,0.0331,0.0331,0.0355,0.0336,0.0348,0.0385,0.0389,0.0395,0.04,0.0391,0.0394,0.0351,0.0351,0.0351,0,0.0328,0.0344,0.0338,0.0352,0.0361,0.0348,0.0365,0.0365,0.0361,0.037,0.0354,0.0362,0.0349,0.0375,0.0379,0.0367,0.0359,0.0369,0.0396,0.0401,0.0405,0.0394,0.0398,0.0353,0.0353,0.0353,0.0353,0,0.0354,0.0366,0.0375,0.0392,0.0399,0.0411,0.0414,0.0421,0.0418,0.0418,0.0437,0.0423,0.0432,0.0424,0.0408,0.0435,0.0415,0.0401,0.0386,0.0415,0.0401,0.0404,0.0357,0.0356,0.0355,0.0355,0,0,0.0364,0.0389,0.0392,0.0412,0.0422,0.0435,0.0456,0.0476,0.0503,0.0492,0.053,0.0519,0.0511,0.0511,0.0493,0.0491,0.0504,0.046,0.0459,0.0456,0.0504,0.0486,0.0487,0.0493,0.0494,0.0495,0.0479,0,0.0388,0.0426,0.043,0.0469,0.0492,0.0494,0.0521,0.0537,0.0546,0.0577,0.0569,0.0593,0.0546,0.0558,0.0549,0.0524,0.0515,0.0509,0.0472,0.0471,0.0457,0.0491,0.0536,0.0526,0.0482,0.0483,0.0483,0,0.0412,0.0438,0.0479,0.0523,0.0534,0.0554,0.0603,0.0627,0.0659,0.0669,0.0686,0.068,0.069,0.0643,0.0614,0.0612,0.0562,0.0531,0.0529,0.0501,0.046,0.0492,0.0533,0.056,0.0487,0.0487,0.0486,0,0.0431,0.0473,0.0511,0.0524,0.0568,0.0592,0.0619,0.0654,0.0695,0.0735,0.0774,0.0768,0.079,0.0732,0.0664,0.0642,0.0626,0.0587,0.0521,0.0519,0.0546,0.0544,0.0617,0.0562,0.0562,0.0562,0.0562,0,0.0458,0.0489,0.0524,0.0547,0.0604,0.0623,0.0689,0.0714,0.0772,0.0844,0.0829,0.0888,0.0814,0.0796,0.0705,0.0633,0.0657,0.0541,0.0523,0.0562,0.0562,0.0575,0.0549,0.0561,0.0562,0.0562,0.0562,0,0.0473,0.0494,0.0543,0.0593,0.0614,0.0657,0.0736,0.0789,0.0837,0.0934,0.0958,0.0989,0.0966,0.0876,0.0795,0.0703,0.0624,0.0582,0.0625,0.0612,0.056,0.0534,0.0531,0.0547,0.0509,0.0509,0.0509,0,0.0486,0.0511,0.0575,0.0609,0.0633,0.0699,0.0752,0.0814,0.0881,0.1005,0.1063,0.108,0.1107,0.098,0.0825,0.0673,0.0636,0.0602,0.0563,0.0582,0.054,0.0514,0.0527,0.0613,0.0614,0.0614,0.0615,0,0.0512,0.0529,0.0571,0.0638,0.0694,0.0771,0.0854,0.0923,0.1022,0.1122,0.1245,0.1281,0.1174,0.1077,0.0866,0.0742,0.0632,0.0603,0.063,0.0638,0.0611,0.061,0.0585,0.0619,0.0618,0.0618,0.0618,0.0618,0.0529,0.0558,0.0605,0.067,0.0739,0.0836,0.092,0.1034,0.1173,0.1353,0.1366,0.1452,0.1318,0.1046,0.0898,0.07,0.0647,0.0641,0.0609,0.0583,0.0606,0.0578,0.0584,0.0583,0.0583,0.0582,0.0582,0,0.0545,0.0577,0.0635,0.0716,0.0792,0.083,0.0984,0.1098,0.1286,0.1447,0.1562,0.1568,0.1389,0.118,0.0909,0.0772,0.0709,0.0692,0.0702,0.0714,0.0714,0.073,0.0761,0.0761,0.0761,0.0761,0.0761,0.0761,0.0555,0.06,0.0626,0.0737,0.0803,0.0933,0.1032,0.1233,0.1387,0.1629,0.1727,0.1786,0.1701,0.1195,0.0944,0.085,0.0808,0.0727,0.0707,0.0746,0.074,0.0735,0.0749,0.0784,0.0784,0.0765,0.0765,0.0764]}],[{"header":{"parameterUnit":"m.s-1","parameterCategory":2,"la1":30.2991,"la2":30.254,"lo1":-89.0895,"lo2":-89.0444,"dy":0.0017,"dx":0.0017,"nx":28,"ny":28,"refTime":"2025-04-17T03:00:00:Z","depth":"2","parameterNumber":2,"parameterNumberName":"U-component_of_CURRENTS"},"data":[0,0,0,0,0,0,0,0,0,0,0,0,0,0,0,0,0,0,0,0,0,0,0,0,0,0,0,0,0,0,0,0,0,0,0,0,0,0,0,0,0,0,0,0,0,0,0,0,0,0,0,0,0,0,0,0,0,0,0.1797,0.1797,0,0.1797,0.1797,0.1797,0.179,0.179,0.179,0.179,0.1807,0.1807,0.1808,0,0,0,0,0,0,0,0,0,0,0,0,0,0.1809,0.1809,0.1797,0.1797,0.1797,0.1797,0.1797,0.1797,0.179,0.179,0.179,0.179,0.1807,0.1807,0.1808,0,0,0,0,0,0,0,0,0,0,0,0,0,0.1806,0.1809,0.1797,0.1794,0.1794,0.1797,0.1797,0.1797,0.179,0.179,0.179,0.179,0.1806,0.1807,0.1808,0.1818,0,0,0.1811,0.1811,0,0,0,0,0,0,0,0,0.1806,0.1806,0.1794,0.1794,0.1794,0.1794,0.1808,0.1805,0.179,0.1791,0.179,0.179,0.1804,0.1805,0.1805,0.1819,0.182,0.1811,0.1811,0.1812,0.1812,0,0,0,0,0,0,0,0.1806,0.1806,0.1797,0.1794,0.1794,0.1799,0.1798,0.1807,0.1799,0.1791,0.1791,0.1791,0.1804,0.1804,0.1806,0.182,0.1811,0.1812,0.1812,0.1813,0.1873,0.1874,0,0,0,0,0,0,0.1806,0.1806,0.1797,0.1797,0.18,0.1799,0.1798,0.1794,0.1799,0.1799,0.1792,0.1791,0.1803,0.1805,0.1806,0.1846,0.1812,0.1813,0.1813,0.1872,0.1873,0.1875,0,0,0,0,0,0,0.1806,0.1805,0.1797,0.1802,0.1801,0.1799,0.1795,0.1794,0.1796,0.1799,0.18,0.1795,0.1803,0.1805,0.1822,0.1845,0.1813,0.1814,0.1871,0.1872,0.1874,0.1907,0,0,0,0,0,0,0.1807,0.1805,0.1805,0.1802,0.1801,0.1807,0.1795,0.1794,0.1797,0.1796,0.1802,0.1803,0.1803,0.1821,0.1823,0.1846,0.1815,0.1869,0.1872,0.1873,0.1905,0.191,0.1914,0,0,0,0,0,0.1807,0.1807,0.1805,0.1804,0.18,0.1807,0.1808,0.1805,0.1798,0.1805,0.1808,0.1803,0.1835,0.1822,0.1824,0.1848,0.1868,0.1871,0.1873,0.1903,0.1909,0.1914,0,0,0,0,0,0,0.1813,0.1807,0.1804,0.1802,0.1808,0.1806,0.1811,0.1808,0.1815,0.1814,0.1813,0.1815,0.1845,0.184,0.1825,0.1873,0.1853,0.1856,0.1874,0.188,0.1885,0.1888,0.1815,0,0,0,0,0,0.1815,0.1813,0.1812,0.1813,0.1816,0.1814,0.1817,0.1816,0.182,0.1822,0.1825,0.1835,0.1857,0.1861,0.1878,0.1896,0.1908,0.1914,0.1919,0.1923,0.1928,0.1975,0.1985,0.1882,0.1882,0.1882,0,0,0.1816,0.1814,0.1812,0.1814,0.1817,0.1823,0.1815,0.1822,0.183,0.1824,0.1838,0.1855,0.1867,0.1895,0.1907,0.1892,0.1958,0.1926,0.1929,0.1932,0.1979,0.1989,0.1998,0.1884,0.1884,0.1883,0,0,0.182,0.1819,0.1818,0.1824,0.183,0.1833,0.1836,0.1839,0.1846,0.1863,0.1869,0.1896,0.1913,0.1932,0.1943,0.1982,0.1987,0.1989,0.2007,0.2053,0.2062,0.207,0.2094,0.2104,0.1983,0.1983,0.1983,0,0.1824,0.1818,0.1822,0.1826,0.183,0.1838,0.1842,0.1854,0.1863,0.1877,0.1872,0.1925,0.1933,0.1979,0.1993,0.1994,0.2013,0.1983,0.206,0.2068,0.2075,0.2098,0.2109,0.1985,0.1985,0.1984,0.1984,0,0.1823,0.1823,0.1827,0.1831,0.1841,0.1848,0.1863,0.1879,0.1888,0.1902,0.195,0.1971,0.2003,0.2015,0.2014,0.2075,0.207,0.2067,0.2045,0.2088,0.2109,0.2119,0.1987,0.1987,0.1986,0.1986,0,0,0.1815,0.1823,0.1823,0.1825,0.1843,0.1848,0.1876,0.1902,0.1925,0.1951,0.1989,0.2032,0.2051,0.2066,0.208,0.2114,0.2182,0.2112,0.2113,0.2134,0.2276,0.2178,0.2179,0.2196,0.2198,0.22,0.2267,0,0.1812,0.1814,0.1823,0.1831,0.1834,0.1856,0.1882,0.1911,0.1943,0.1985,0.2027,0.2074,0.2069,0.2097,0.2133,0.2181,0.2211,0.2163,0.2233,0.2234,0.2141,0.2189,0.1992,0.2028,0.2277,0.2279,0.228,0,0.1802,0.1806,0.1808,0.1829,0.1834,0.1845,0.1889,0.1915,0.1982,0.2013,0.2069,0.2108,0.2177,0.2164,0.226,0.2232,0.2256,0.2281,0.2284,0.2187,0.2155,0.2027,0.2037,0.2297,0.2296,0.2295,0.2294,0,0.1781,0.1793,0.1794,0.1798,0.1826,0.1839,0.1863,0.1922,0.1954,0.204,0.2084,0.2162,0.2218,0.2271,0.2318,0.2303,0.2412,0.2398,0.2328,0.232,0.2162,0.2137,0.246,0.246,0.2459,0.2459,0.2459,0,0.1766,0.1766,0.1782,0.178,0.1794,0.1824,0.1857,0.1899,0.1969,0.202,0.2099,0.2158,0.2252,0.2319,0.2346,0.2366,0.2437,0.234,0.2337,0.2166,0.2141,0.238,0.237,0.2462,0.2461,0.2461,0.246,0,0.1738,0.1748,0.1747,0.1771,0.178,0.179,0.1839,0.1866,0.1948,0.2022,0.2058,0.2178,0.2261,0.2326,0.2418,0.2395,0.2428,0.2411,0.2191,0.2159,0.2297,0.2288,0.2348,0.2345,0.2343,0.2341,0.2339,0,0.1723,0.1718,0.173,0.1728,0.1735,0.1757,0.1774,0.1844,0.188,0.2026,0.2059,0.2174,0.2226,0.2312,0.2293,0.2306,0.2382,0.2132,0.2059,0.2298,0.229,0.2284,0.2278,0.1869,0.1864,0.186,0.1856,0,0.1696,0.1697,0.1696,0.169,0.1694,0.1706,0.1739,0.1765,0.1865,0.1933,0.2029,0.2087,0.2149,0.2069,0.2076,0.2061,0.2111,0.2041,0.2374,0.1915,0.1849,0.184,0.185,0.1817,0.1821,0.1824,0.1826,0.1828,0.1674,0.1662,0.1655,0.1643,0.1646,0.1648,0.1652,0.1703,0.1753,0.1831,0.192,0.1929,0.1938,0.1834,0.1776,0.1723,0.1874,0.1797,0.181,0.1828,0.1748,0.1679,0.16,0.1603,0.1605,0.1607,0.1609,0,0.1635,0.1623,0.1609,0.159,0.157,0.1596,0.1619,0.161,0.1648,0.1694,0.1738,0.1581,0.1503,0.1511,0.1354,0.1343,0.1335,0.1297,0.1272,0.1311,0.1346,0.1241,0.096,0.0958,0.0956,0.0954,0,0,0.1614,0.1579,0.1563,0.1512,0.1507,0.1486,0.1492,0.1487,0.1491,0.1449,0.1409,0.1472,0.148,0.1216,0.1164,0.1035,0.1173,0.0993,0.1514,0.1525,0.1558,0.1633,0.1515,0,0,0,0,0]},{"header":{"parameterUnit":"m.s-1","parameterCategory":2,"la1":30.2991,"la2":30.254,"lo1":-89.0895,"lo2":-89.0444,"dy":0.0017,"dx":0.0017,"nx":28,"ny":28,"refTime":"2025-04-17T03:00:00:Z","depth":"2","parameterNumber":3,"parameterNumberName":"V-component_of_CURRENTS"},"data":[0,0,0,0,0,0,0,0,0,0,0,0,0,0,0,0,0,0,0,0,0,0,0,0,0,0,0,0,0,0,0,0,0,0,0,0,0,0,0,0,0,0,0,0,0,0,0,0,0,0,0,0,0,0,0,0,0,0,0.0196,0.0196,0,0.0182,0.0182,0.0181,0.0166,0.0166,0.0166,0.0166,0.0149,0.0149,0.0148,0,0,0,0,0,0,0,0,0,0,0,0,0,0.019,0.019,0.0196,0.0196,0.0196,0.0182,0.0181,0.0181,0.0166,0.0166,0.0166,0.0166,0.0149,0.0149,0.0148,0,0,0,0,0,0,0,0,0,0,0,0,0,0.0185,0.0191,0.0196,0.0188,0.0187,0.0182,0.0181,0.0181,0.0166,0.0166,0.0166,0.0166,0.0149,0.0149,0.0148,0.0149,0,0,0.0147,0.0147,0,0,0,0,0,0,0,0,0.0185,0.0185,0.0189,0.0188,0.0187,0.0177,0.0173,0.017,0.0166,0.0173,0.0166,0.0166,0.0159,0.0158,0.0154,0.0148,0.0147,0.0147,0.0146,0.0146,0.0146,0,0,0,0,0,0,0,0.0186,0.0186,0.0189,0.0189,0.0188,0.0177,0.0177,0.0172,0.0166,0.0173,0.0172,0.0172,0.0158,0.0154,0.0153,0.0147,0.0147,0.0146,0.0146,0.0146,0.0149,0.015,0,0,0,0,0,0,0.0191,0.0186,0.019,0.0189,0.0187,0.0178,0.0177,0.0179,0.0166,0.0165,0.0172,0.0171,0.0155,0.0154,0.0153,0.0172,0.0146,0.0146,0.0145,0.0149,0.0149,0.015,0,0,0,0,0,0,0.0191,0.0192,0.0191,0.0188,0.0187,0.0178,0.0181,0.0179,0.0178,0.0166,0.0164,0.0173,0.0155,0.0153,0.0155,0.0171,0.0146,0.0145,0.0149,0.0149,0.015,0.0199,0,0,0,0,0,0,0.0191,0.0192,0.0195,0.0188,0.0188,0.0193,0.0181,0.0179,0.0179,0.0178,0.0167,0.0165,0.0155,0.0156,0.0155,0.017,0.0145,0.0148,0.0149,0.015,0.0197,0.0201,0.0205,0,0,0,0,0,0.0191,0.0198,0.0196,0.0196,0.0193,0.0194,0.0192,0.0184,0.0179,0.0182,0.0175,0.0165,0.016,0.0156,0.0154,0.017,0.0148,0.0149,0.0149,0.0195,0.02,0.0204,0,0,0,0,0,0,0.0197,0.0197,0.0194,0.0201,0.02,0.0192,0.0195,0.0188,0.0185,0.0185,0.0171,0.0169,0.0176,0.0164,0.016,0.0172,0.0152,0.0152,0.0187,0.0192,0.0195,0.0211,0.0144,0,0,0,0,0,0.0201,0.0207,0.0204,0.021,0.0211,0.0204,0.0203,0.0198,0.0194,0.0192,0.0184,0.0178,0.0178,0.0178,0.0173,0.018,0.017,0.0187,0.0191,0.0195,0.0206,0.0207,0.0212,0.0153,0.0153,0.0153,0,0,0.0204,0.0206,0.0209,0.0212,0.021,0.022,0.0203,0.0206,0.0216,0.0191,0.0202,0.0192,0.0182,0.0192,0.0194,0.0184,0.0205,0.0196,0.0199,0.0208,0.0208,0.0214,0.022,0.0154,0.0153,0.0153,0,0,0.0218,0.0218,0.0229,0.0232,0.0234,0.0232,0.0235,0.023,0.0231,0.0238,0.0226,0.0228,0.0222,0.0223,0.0222,0.0245,0.0226,0.0239,0.0274,0.0275,0.028,0.0285,0.0273,0.0276,0.0241,0.0241,0.0242,0,0.0222,0.0238,0.0232,0.0245,0.0254,0.0241,0.0258,0.0258,0.0254,0.0262,0.0249,0.0254,0.0241,0.0263,0.0268,0.0256,0.0247,0.0258,0.0282,0.0286,0.029,0.0277,0.0279,0.0244,0.0244,0.0243,0.0243,0,0.0246,0.0259,0.0267,0.0283,0.0289,0.0301,0.0303,0.0311,0.0309,0.0309,0.0327,0.0312,0.0319,0.0311,0.0297,0.032,0.0301,0.0287,0.0272,0.0299,0.0283,0.0285,0.0247,0.0247,0.0246,0.0245,0,0,0.0258,0.028,0.0284,0.0302,0.0312,0.0324,0.0344,0.0362,0.0387,0.0378,0.0411,0.0401,0.0394,0.0393,0.0375,0.0372,0.0381,0.0343,0.0341,0.0336,0.0376,0.0363,0.0363,0.0372,0.0373,0.0373,0.0352,0,0.028,0.0316,0.032,0.0357,0.0378,0.038,0.0405,0.0419,0.0429,0.0456,0.0446,0.0469,0.0426,0.0438,0.0427,0.0401,0.039,0.0388,0.0346,0.0345,0.0335,0.0367,0.0348,0.0328,0.0353,0.0354,0.0354,0,0.0304,0.0328,0.0368,0.0408,0.0418,0.0437,0.0483,0.0505,0.0534,0.0543,0.0557,0.0551,0.0557,0.0515,0.0482,0.0482,0.0434,0.0402,0.04,0.0375,0.0337,0.0306,0.0331,0.0357,0.0357,0.0356,0.0356,0,0.0324,0.0363,0.0399,0.0411,0.0451,0.0474,0.05,0.0532,0.0571,0.0607,0.0644,0.0633,0.0653,0.0594,0.0526,0.0508,0.0482,0.0448,0.0387,0.0384,0.0356,0.035,0.042,0.042,0.042,0.042,0.042,0,0.0349,0.0379,0.0413,0.0434,0.0489,0.0507,0.0569,0.0593,0.0645,0.0714,0.0697,0.075,0.0676,0.0652,0.0562,0.049,0.0509,0.0405,0.0387,0.037,0.0366,0.038,0.0376,0.0419,0.0419,0.042,0.042,0,0.0365,0.0385,0.0432,0.0479,0.05,0.0541,0.0616,0.0666,0.0711,0.0804,0.0827,0.0848,0.0822,0.0728,0.0644,0.0555,0.0472,0.0434,0.0415,0.0396,0.0359,0.0358,0.0369,0.0369,0.0368,0.0368,0.0368,0,0.0377,0.0402,0.0463,0.0497,0.052,0.0584,0.0635,0.0693,0.0756,0.0872,0.0926,0.0938,0.0953,0.0817,0.0664,0.051,0.0483,0.0389,0.0351,0.0378,0.0358,0.0357,0.0356,0.0323,0.0322,0.0322,0.0321,0,0.0402,0.042,0.0459,0.0526,0.0581,0.0654,0.0734,0.0799,0.0893,0.0983,0.1093,0.1117,0.1002,0.0857,0.0647,0.053,0.0411,0.0374,0.0422,0.0342,0.0333,0.0314,0.0315,0.0317,0.0317,0.0318,0.0318,0.0318,0.0418,0.0446,0.0493,0.0557,0.0624,0.0718,0.0797,0.0905,0.1031,0.1178,0.1186,0.1207,0.1044,0.0766,0.0584,0.0382,0.0404,0.0307,0.0309,0.0311,0.0314,0.0305,0.0283,0.0283,0.0283,0.0284,0.0284,0,0.0432,0.0466,0.0523,0.0602,0.0674,0.0716,0.0859,0.0952,0.1123,0.1225,0.1307,0.1113,0.0948,0.0746,0.0457,0.0297,0.0265,0.0219,0.0218,0.0224,0.0229,0.0227,0.0173,0.0172,0.0172,0.0171,0,0,0.0441,0.0484,0.051,0.0619,0.069,0.0816,0.0909,0.1066,0.1166,0.127,0.1271,0.1239,0.0997,0.0757,0.0531,0.0362,0.0325,0.0309,0.0415,0.0448,0.0455,0.0296,0.0301,0,0,0,0,0]}],[{"header":{"parameterUnit":"m.s-1","parameterCategory":2,"la1":30.2991,"la2":30.254,"lo1":-89.0895,"lo2":-89.0444,"dy":0.0017,"dx":0.0017,"nx":28,"ny":28,"refTime":"2025-04-17T03:00:00:Z","depth":"4","parameterNumber":2,"parameterNumberName":"U-component_of_CURRENTS"},"data":[0,0,0,0,0,0,0,0,0,0,0,0,0,0,0,0,0,0,0,0,0,0,0,0,0,0,0,0,0,0,0,0,0,0,0,0,0,0,0,0,0,0,0,0,0,0,0,0,0,0,0,0,0,0,0,0,0,0,0.1057,0.1057,0,0.1079,0.1079,0.1079,0.111,0.1111,0.1111,0.1112,0.1147,0.1147,0.1148,0,0,0,0,0,0,0,0,0,0,0,0,0,0.103,0.103,0.1057,0.1057,0.1058,0.1079,0.1079,0.1079,0.111,0.1111,0.1112,0.1112,0.1147,0.1147,0.1148,0,0,0,0,0,0,0,0,0,0,0,0,0,0.1044,0.103,0.1057,0.1077,0.1079,0.1079,0.1079,0.1079,0.111,0.1111,0.1112,0.1113,0.1147,0.1147,0.1148,0.113,0,0,0.1149,0.1149,0,0,0,0,0,0,0,0,0.1043,0.1045,0.1074,0.1076,0.1078,0.1094,0.1082,0.1097,0.1109,0.1096,0.1112,0.1113,0.1131,0.1133,0.1132,0.1131,0.1133,0.1149,0.1149,0.115,0.115,0,0,0,0,0,0,0,0.1042,0.1044,0.1064,0.1074,0.1077,0.1081,0.1084,0.1085,0.1107,0.1098,0.11,0.1105,0.1132,0.1131,0.1133,0.1133,0.1149,0.1149,0.115,0.115,0.12,0.1201,0,0,0,0,0,0,0.1042,0.1043,0.1063,0.1065,0.1065,0.1081,0.1084,0.1087,0.1106,0.1111,0.1104,0.1106,0.113,0.1133,0.1134,0.1189,0.115,0.115,0.115,0.1199,0.12,0.1201,0,0,0,0,0,0,0.1042,0.1044,0.1062,0.1056,0.1059,0.108,0.1083,0.1086,0.1113,0.1111,0.1116,0.113,0.1131,0.1134,0.1159,0.1188,0.115,0.1151,0.1198,0.1199,0.1201,0.1251,0,0,0,0,0,0,0.1041,0.1043,0.1056,0.1056,0.1059,0.1081,0.1082,0.1086,0.1113,0.1117,0.1134,0.1137,0.1132,0.1158,0.1159,0.1188,0.1151,0.1196,0.1199,0.12,0.1248,0.1254,0.1259,0,0,0,0,0,0.104,0.1049,0.1057,0.106,0.1073,0.1082,0.1084,0.1101,0.1114,0.1128,0.1141,0.1138,0.1172,0.1159,0.116,0.119,0.1195,0.1198,0.12,0.1246,0.1253,0.1259,0,0,0,0,0,0,0.1045,0.1053,0.1062,0.1074,0.1087,0.1088,0.1106,0.1115,0.1136,0.1148,0.1146,0.115,0.1184,0.1178,0.1164,0.1211,0.1185,0.1188,0.1219,0.1226,0.1232,0.1231,0.1151,0,0,0,0,0,0.1051,0.1062,0.107,0.1084,0.1093,0.1104,0.1115,0.1127,0.1139,0.1151,0.1163,0.1176,0.1189,0.1201,0.1209,0.123,0.1232,0.1252,0.1257,0.1262,0.1263,0.1301,0.131,0.1209,0.1209,0.1209,0,0,0.1057,0.1064,0.1072,0.1087,0.1099,0.1111,0.1114,0.1138,0.1154,0.115,0.1185,0.1198,0.1199,0.1227,0.1242,0.1229,0.1291,0.1265,0.1269,0.1267,0.1305,0.1314,0.1323,0.1211,0.1211,0.121,0,0,0.1066,0.1084,0.1094,0.1105,0.1129,0.1135,0.1148,0.1166,0.1185,0.1213,0.1217,0.1248,0.1266,0.1275,0.1279,0.1319,0.132,0.133,0.1359,0.1397,0.1406,0.1413,0.1424,0.1432,0.1333,0.1333,0.1333,0,0.1078,0.1086,0.11,0.1112,0.1125,0.1148,0.1162,0.1179,0.1205,0.1224,0.1234,0.1281,0.1287,0.1317,0.1335,0.1333,0.1348,0.1333,0.1405,0.1413,0.142,0.1429,0.1437,0.1336,0.1336,0.1335,0.1335,0,0.1082,0.1101,0.111,0.1131,0.1148,0.1166,0.1187,0.1216,0.1246,0.1265,0.1317,0.1332,0.1362,0.1373,0.1367,0.142,0.1412,0.1409,0.1388,0.1433,0.144,0.1447,0.134,0.1339,0.1338,0.1337,0,0,0.1075,0.1107,0.1113,0.1126,0.1161,0.1171,0.1206,0.124,0.127,0.1314,0.1354,0.1391,0.1419,0.1425,0.1433,0.1464,0.1525,0.1464,0.1465,0.1474,0.16,0.148,0.1477,0.1545,0.1547,0.1548,0.1583,0,0.1079,0.1098,0.1117,0.1144,0.1155,0.1189,0.1217,0.1255,0.1297,0.1343,0.1382,0.1426,0.1433,0.1461,0.1497,0.152,0.1549,0.1515,0.1555,0.1555,0.1444,0.1483,0.1554,0.1589,0.1591,0.1592,0.1593,0,0.1071,0.1087,0.1112,0.1148,0.1158,0.1184,0.1238,0.1269,0.1335,0.1372,0.1433,0.1465,0.1524,0.1521,0.1595,0.158,0.1597,0.1608,0.161,0.1484,0.1449,0.1536,0.1607,0.1606,0.1605,0.1604,0.1603,0,0.1044,0.1081,0.1103,0.1115,0.1161,0.1189,0.1224,0.1286,0.1318,0.1403,0.144,0.1513,0.1562,0.1605,0.1639,0.1633,0.1704,0.1695,0.1598,0.1589,0.1665,0.1656,0.1744,0.1744,0.1744,0.1744,0.1744,0,0.1023,0.1043,0.1097,0.1107,0.1141,0.1184,0.1234,0.1278,0.1347,0.1384,0.1464,0.1495,0.1593,0.1639,0.1657,0.1648,0.1727,0.1604,0.1594,0.1683,0.1677,0.167,0.1661,0.1745,0.1745,0.1744,0.1744,0,0.0984,0.1021,0.1047,0.1106,0.1128,0.1157,0.1231,0.1258,0.1339,0.139,0.1421,0.1511,0.157,0.1633,0.17,0.166,0.1664,0.1639,0.1721,0.1716,0.1517,0.1511,0.1532,0.1528,0.1524,0.1522,0.1519,0,0.0962,0.0974,0.104,0.1058,0.1091,0.1142,0.1169,0.1248,0.1268,0.1374,0.1378,0.1475,0.1524,0.1522,0.1595,0.1619,0.1603,0.1587,0.1556,0.1509,0.1498,0.1497,0.1494,0.1514,0.1513,0.1512,0.1512,0,0.092,0.0957,0.0981,0.1017,0.1051,0.1073,0.1116,0.1119,0.1202,0.1293,0.1309,0.1341,0.1401,0.1448,0.1482,0.1492,0.1587,0.1553,0.156,0.153,0.1488,0.148,0.1482,0.15,0.1502,0.1503,0.1504,0,0.0896,0.0901,0.0939,0.0961,0.0997,0.0981,0.1013,0.1028,0.1061,0.1171,0.1174,0.1278,0.1378,0.1381,0.1404,0.1414,0.1394,0.1343,0.1361,0.1374,0.1307,0.123,0.1155,0,0,0,0,0,0.0863,0.0858,0.0874,0.0878,0.0905,0.0918,0.0962,0.0992,0.1072,0.1051,0.1108,0.1154,0.1198,0.1246,0.1228,0.1332,0.1398,0.1302,0.1347,0.1437,0.145,0.1386,0,0,0,0,0,0,0.0839,0.0855,0.085,0.0804,0.0787,0.0792,0.0812,0.0862,0.0849,0.0951,0.0985,0.1074,0.1139,0.1205,0.1205,0.1221,0.1221,0.1372,0.1368,0.143,0.1442,0.1452,0.139,0,0,0,0,0]},{"header":{"parameterUnit":"m.s-1","parameterCategory":2,"la1":30.2991,"la2":30.254,"lo1":-89.0895,"lo2":-89.0444,"dy":0.0017,"dx":0.0017,"nx":28,"ny":28,"refTime":"2025-04-17T03:00:00:Z","depth":"4","parameterNumber":3,"parameterNumberName":"V-component_of_CURRENTS"},"data":[0,0,0,0,0,0,0,0,0,0,0,0,0,0,0,0,0,0,0,0,0,0,0,0,0,0,0,0,0,0,0,0,0,0,0,0,0,0,0,0,0,0,0,0,0,0,0,0,0,0,0,0,0,0,0,0,0,0,0.0027,0.0027,0,0.0015,0.0015,0.0015,0.0005,0.0005,0.0005,0.0005,-0.0015,-0.0015,-0.0016,0,0,0,0,0,0,0,0,0,0,0,0,0,0.0025,0.0025,0.0027,0.0027,0.0027,0.0015,0.0015,0.0014,0.0005,0.0005,0.0005,0.0005,-0.0015,-0.0015,-0.0016,0,0,0,0,0,0,0,0,0,0,0,0,0,0.002,0.0026,0.0027,0.0021,0.0021,0.0015,0.0015,0.0014,0.0005,0.0005,0.0005,0.0005,-0.0014,-0.0015,-0.0016,-0.0021,0,0,-0.0018,-0.0019,0,0,0,0,0,0,0,0,0.002,0.002,0.0022,0.0022,0.0021,0.0012,0.0007,0.0003,0.0005,0.001,0.0005,0.0005,-0.0006,-0.0007,-0.0011,-0.0022,-0.0022,-0.0018,-0.0019,-0.0019,-0.0019,0,0,0,0,0,0,0,0.0021,0.0021,0.0021,0.0022,0.0022,0.0014,0.0013,0.0006,0.0002,0.001,0.0009,0.001,-0.0006,-0.001,-0.0011,-0.0023,-0.0018,-0.0019,-0.002,-0.002,-0.0029,-0.0029,0,0,0,0,0,0,0.0025,0.0021,0.0022,0.0021,0.0022,0.0014,0.0013,0.0015,0.0002,0.0,0.001,0.0009,-0.0009,-0.001,-0.0012,-0.0003,-0.0019,-0.002,-0.002,-0.0029,-0.0029,-0.0028,0,0,0,0,0,0,0.0025,0.0025,0.0022,0.0021,0.002,0.0014,0.0016,0.0014,0.0013,0.0002,-0.0,0.0011,-0.0009,-0.0011,-0.0013,-0.0004,-0.002,-0.0021,-0.0029,-0.0029,-0.0029,0.0005,0,0,0,0,0,0,0.0025,0.0025,0.0028,0.0022,0.0021,0.0022,0.0016,0.0014,0.0014,0.0013,0.0002,0.0,-0.0009,-0.0012,-0.0014,-0.0006,-0.0022,-0.003,-0.0029,-0.0029,0.0003,0.0006,0.0009,0,0,0,0,0,0.0025,0.0029,0.0028,0.0028,0.0024,0.0023,0.0022,0.0016,0.0014,0.0015,0.0009,0.0001,-0.0011,-0.0012,-0.0015,-0.0007,-0.003,-0.0029,-0.0029,0.0002,0.0006,0.0009,0,0,0,0,0,0,0.0027,0.0028,0.0027,0.003,0.0028,0.0022,0.0023,0.0019,0.0015,0.0015,0.0003,0.0001,0.0001,-0.0008,-0.001,-0.0009,-0.0022,-0.0022,0.0003,0.0006,0.0009,0.0017,-0.0022,0,0,0,0,0,0.003,0.0033,0.0031,0.0034,0.0035,0.003,0.0029,0.0026,0.0022,0.002,0.0012,0.0005,0.0,-0.0,-0.0009,-0.0007,-0.0019,-0.0004,-0.0001,0.0001,0.0006,-0.0005,-0.0003,-0.0027,-0.0027,-0.0027,0,0,0.0031,0.0032,0.0034,0.0035,0.0034,0.004,0.0029,0.003,0.0037,0.0018,0.0024,0.0012,0.0002,0.0004,0.0003,-0.0001,0.0001,0.0002,0.0004,0.0007,-0.0004,-0.0002,0.0,-0.0026,-0.0026,-0.0026,0,0,0.0037,0.0038,0.0044,0.0046,0.0048,0.0047,0.0049,0.0046,0.0046,0.005,0.0038,0.0034,0.0027,0.0022,0.0019,0.0031,0.0013,0.0027,0.0051,0.004,0.0042,0.0044,0.0029,0.0029,0.0032,0.0032,0.0032,0,0.0039,0.0049,0.0045,0.0054,0.006,0.0053,0.0064,0.0064,0.006,0.0064,0.0057,0.0049,0.0037,0.0043,0.0047,0.0038,0.0026,0.0041,0.0044,0.0046,0.0047,0.0031,0.0031,0.0034,0.0033,0.0033,0.0033,0,0.0052,0.0061,0.0066,0.0077,0.0082,0.009,0.0092,0.0097,0.0097,0.0096,0.0099,0.0084,0.0083,0.0076,0.0066,0.007,0.0057,0.0047,0.0038,0.0051,0.0034,0.0033,0.0036,0.0035,0.0035,0.0034,0,0,0.0055,0.0072,0.0075,0.0087,0.0097,0.0103,0.0118,0.0129,0.0142,0.0135,0.0151,0.0138,0.013,0.0125,0.011,0.01,0.0094,0.008,0.0078,0.0068,0.0067,0.0072,0.0071,0.0084,0.0084,0.0084,0.0051,0,0.0068,0.0091,0.0096,0.0121,0.0134,0.0139,0.0155,0.0164,0.0168,0.018,0.0168,0.0174,0.015,0.0152,0.0139,0.0106,0.0093,0.0103,0.0053,0.0051,0.0057,0.0071,0.0084,0.005,0.005,0.005,0.005,0,0.0081,0.0096,0.0122,0.015,0.0157,0.0171,0.0199,0.0215,0.0227,0.0232,0.0234,0.0222,0.0215,0.019,0.0146,0.0154,0.0115,0.0085,0.0083,0.0076,0.0055,0.0034,0.0048,0.0048,0.0048,0.0048,0.0048,0,0.0087,0.0115,0.0139,0.0148,0.0176,0.0193,0.0212,0.023,0.0254,0.0268,0.0284,0.0265,0.0268,0.0218,0.0161,0.0154,0.0107,0.0088,0.0054,0.0053,0.0042,0.0041,0.0054,0.0054,0.0054,0.0054,0.0054,0,0.0099,0.0118,0.0145,0.0159,0.0194,0.021,0.025,0.0265,0.0296,0.0333,0.0315,0.0333,0.0275,0.0243,0.0178,0.012,0.0121,0.0062,0.0049,0.0057,0.0057,0.0041,0.004,0.0053,0.0053,0.0053,0.0053,0,0.0099,0.0118,0.0147,0.0182,0.0198,0.0225,0.028,0.0309,0.0336,0.0384,0.0394,0.0388,0.0355,0.0288,0.0211,0.0153,0.0086,0.006,0.0078,0.0065,0.0032,0.0033,0.0021,0.0021,0.0021,0.0021,0.0021,0,0.01,0.0115,0.0161,0.0185,0.0203,0.0249,0.0284,0.0326,0.0363,0.0418,0.0441,0.0432,0.0418,0.0318,0.0236,0.0122,0.0098,0.0053,0.0038,0.0042,0.003,0.0031,0.0032,0.0021,0.0021,0.0021,0.0021,0,0.0101,0.0117,0.0142,0.0192,0.0233,0.0283,0.0337,0.0371,0.0432,0.0453,0.0491,0.0454,0.0421,0.0335,0.0253,0.0163,0.0077,0.0052,0.0051,0.0037,0.0042,0.003,0.0031,0.0021,0.0021,0.0021,0.0021,0,0.01,0.0115,0.0151,0.0198,0.025,0.031,0.034,0.0396,0.044,0.0505,0.0513,0.0485,0.0469,0.0356,0.0275,0.0199,0.0168,0.0118,0.0113,0.0112,0.0145,0.0166,0.0178,0,0,0,0,0,0.0098,0.0118,0.0156,0.0213,0.0267,0.0303,0.0373,0.0404,0.0465,0.0499,0.0514,0.0487,0.0401,0.0359,0.0285,0.0254,0.0138,0.016,0.0074,0.0021,0.0021,0.0045,0,0,0,0,0,0,0.0096,0.0127,0.015,0.022,0.0263,0.0329,0.0379,0.042,0.0441,0.0488,0.0445,0.0445,0.0357,0.0447,0.0277,0.0255,0.0183,0.0125,0.0123,0.0021,0.0021,0.0021,0.0046,0,0,0,0,0]}]]